Showing default

DSAT, 42794

Orbit data source: Space-Track

DSAT, 42794 is a payload satellite owned by D-ORBIT (IT) in SSO that was launched on Fri, 23 Jun 2017 UTC via a PSLV-XL launch vehicle from the Sirharikota (SRI). Payload-class satellites include a variety of spacecraft equipped with specific instruments for various scientific and technological missions. These include communications satellites like Starlink; space stations such as the ISS; scientific satellites like the Hubble; Earth observation satellites from companies like Planet Labs, Umbra, and HawkEye 360; GPS; miniature CubeSats for education and research; and military/defense satellites.

Loading next visibility...
Identifier
42794, 2017-036AF
Orbit
SSO
Last TLE update
3 hours ago
Origin
Manufacturer
D-ORBIT
Mission
Non-operational Commercial Technology
Bus & Motor
CUBESAT 3U, Unknown motor
Mass
4.5 kg wet, 4.2 kg dry
Launch date (UTC)
2017-06-23 (8 years ago)
Launch vehicle
PSLV-XL
Launch site
Sirharikota (SRI)
Object type
Payload
Rocket body
Debris
Shape & HBR
Box, 0.1 m
Radar Cross Section
0.035 m², Small (<0.1 m²)

Expand to show TLE details & history

TLE from 3 hours ago
0 DSAT
1 42794U 17036AF  25199.85736203  .00003804  00000-0  21250-3 0  9991
2 42794  97.5168 177.0458 0091139 232.0854 127.2111 15.10611280440450
Epoch: 2025-07-18T20:34Z
TLE epoch observation values (Epoch: 2025-07-18T20:34:36.079Z)
Latitude
-0.00008°
Longitude
-68.50732°
Altitude
575.878 km
Speed
7.552 km/s
True Right ascension
11h 48m 10s
True Declination
0° 00' 00"
Sunlit
Object was in daylight at epoch
Visualization orbit readout
Latitude
-64.70446°
Longitude
-52.26815°
Altitude
529.723 km
Speed
7.613 km/s
Apparent Right ascension
23h 20m 40s
Apparent Declination
-78° 48' 15"
Sunlit
Object is in daylight
Visualization observer readout
Local Sidereal Time
12:15:33
Azimuth
175.829° S
Elevation
-50.726°
Doppler factor
1
Orbital elements
Apogee altitude
594.289 km
Perigee altitude
468.345 km
Semi-major axis
6,909.454 km
Eccentricity
0.00911
Inclination
97.5168°
RAAN
177.0458°
Arg. of periapsis
232.0854°
True anomaly
128.03713°
Mean anomaly
127.2111°
Eccentric anomaly
127.62469°
Mean motion
3.77901 °/min
Orbital period
95.26 mins
BSTAR
0.0002125
Loading maneuver chart data...
Loading SW <> Apogee altitude chart data...
Loading historical data...
Loading historical data...
Loading historical data...
Loading historical data...
Loading historical data...
Loading historical data...
Loading historical data...
|